Tracking 22925 objects as of 6-May-2021
HD Live streaming from Space Station
objects crossing your sky now

THORAD AGENA D DEB

Track THORAD AGENA D DEB now!
10-day predictions


NORAD ID: 4857
Int'l Code: 1970-025EM
Perigee: 807.6 km
Apogee: 882.8 km
Inclination: 99.8 °
Period: 101.7 minutes
Semi major axis: 7216 km
RCS: 0.0497 m2 (small)
Launch date: April 8, 1970
Source: United States (US)
Launch site: AIR FORCE WESTERN TEST RANGE (AFWTR)

Note: This is SATELLITE DEBRIS
aabbcc
Your satellite tracking list
Your tracking list is empty




NASA's NSSDC Master Catalog

Two Line Element Set (TLE):
1 04857U 70025EM  21125.84078767  .00000540  00000-0  29535-3 0  9992
2 04857  99.7653 169.8793 0052052 284.7911  74.7497 14.16248847558072
Source of the keplerian elements: AFSPC